Terminal Aerodrome Forecast
Issued by NWS

Current Version | Previous Version | Text Only | Print | Product List | Glossary On
Versions: 1 2 3 4 5 6 7 8 9 10 11 12 13 14 15 16 17 18 19 20 21 22 23 24 25 26 27 28 29 30 31 32 33 34 35 36 37 38 39 40 41 42 43 44 45 46 47 48 49 50
000
FTAK31 PANC 032340
TAFASN
TAF
PASN 032340Z 0400/0424 09015G22KT P6SM SCT012 OVC025
      TEMPO 0400/0404 5SM -RA BR BKN012
     FM040400 08020G30KT P6SM BKN025
     FM041500 06022G34KT P6SM -RA OVC018=

USA.gov is the U.S. government's official web portal to all federal, state and local government web resources and services.